User: anonymous   Login
Location: Franzen
(48.6167°N, 15.3833°E)
Time: 13:03:41
(UTC+00:00)
Language:

Cosmos 614 Rocket - Orbit

View from above orbital plane
View from above orbital plane
View from above satellite
View from above satellite

Ground track
Ground track

The orbit data is extracted from the following two-line orbital elements,

1 06966U 73098B   21173.87526260  .00000052  00000-0  23456-4 0  9995
2 06966  74.0566  21.5866 0021595 345.1069  14.9449 14.43083879496776
Epoch (UTC): 22 June 2021 21:00:22
Eccentricity: 0.0021595
inclination: 74.0566°
perigee height: 733 km
apogee height: 764 km
right ascension of ascending node: 21.5866°
argument of perigee: 345.1069°
revolutions per day: 14.43083879
mean anomaly at epoch: 14.9449°
orbit number at epoch: 49677

The dashed part of the orbit path shows where the satellite is in the earth's shadow,  

DLR